| time (UTC) | temp F | wind direction | speed MPH | gust MPH | rain 1hr in | rain 24hr in | rain mn in | humidity % | barometer mb |
| 20260506051238 | 58 | 230 | 0.0 | 2.0 | 0.05 | 0.05 | 0.05 | 99 | 1007.1 |
| 20260506050736 | 58 | 151 | 0.0 | 3.0 | 0.07 | 0.05 | 0.05 | 98 | 1007.2 |
| 20260506050233 | 58 | 230 | 0.0 | 1.0 | 0.05 | 0.04 | 0.04 | 98 | 1007.2 |
| 20260506044724 | 58 | 53 | 0.0 | 2.0 | 0.07 | 0.02 | 0.02 | 97 | 1007.3 |
| 20260506044221 | 58 | 110 | 0.0 | 1.0 | 0.05 | 0.02 | 0.02 | 96 | 1007.4 |
| 20260506043719 | 58 | 154 | 0.0 | 1.0 | 0.05 | 0.01 | 0.01 | 95 | 1007.5 |
| 20260506043216 | 59 | 193 | 0.0 | 3.0 | 0.05 | 0.01 | 0.01 | 95 | 1007.5 |
| 20260506042715 | 59 | 212 | 0.0 | 1.0 | 0.02 | 0.00 | 0.00 | 93 | 1007.3 |
| 20260506042213 | 59 | 242 | 0.0 | 1.0 | 0.00 | 0.00 | 0.00 | 92 | 1007.1 |
| 20260506041711 | 59 | 205 | 0.0 | 2.0 | 0.00 | 0.00 | 0.00 | 92 | 1007.1 |
| 20260506041208 | 59 | 154 | 0.0 | 1.0 | 0.00 | 0.00 | 0.00 | 91 | 1007.1 |
| 20260506040705 | 59 | 75 | 0.0 | 1.0 | 0.00 | 0.00 | 0.00 | 91 | 1007.1 |
| 20260506040202 | 59 | 41 | 1.0 | 2.0 | 0.00 | 0.00 | 0.00 | 90 | 1007.2 |
| 20260506035658 | 59 | 322 | 2.0 | 3.0 | 0.00 | 0.00 | 0.00 | 90 | 1007.2 |
| 20260506035155 | 59 | 0 | 0.0 | 3.0 | 0.00 | 0.00 | 0.00 | 90 | 1007.1 |
| 20260506034652 | 59 | 333 | 0.0 | 3.0 | 0.00 | 0.00 | 0.00 | 90 | 1007.1 |
| 20260506034149 | 60 | 348 | 2.0 | 4.0 | 0.00 | 0.00 | 0.00 | 89 | 1007.1 |
| 20260506033647 | 60 | 350 | 2.0 | 3.0 | 0.00 | 0.00 | 0.00 | 89 | 1007.0 |
| 20260506033143 | 60 | 345 | 3.0 | 6.0 | 0.00 | 0.00 | 0.00 | 89 | 1007.0 |
| 20260506032641 | 60 | 89 | 0.0 | 0.0 | 0.00 | 0.00 | 0.00 | 89 | 1006.9 |
| 20260506032138 | 60 | 99 | 1.0 | 2.0 | 0.00 | 0.00 | 0.00 | 88 | 1006.6 |
| 20260506031634 | 60 | 243 | 1.0 | 2.0 | 0.00 | 0.00 | 0.00 | 88 | 1006.9 |
| 20260506031131 | 60 | 82 | 1.0 | 2.0 | 0.00 | 0.00 | 0.00 | 88 | 1006.8 |
| 20260506030630 | 60 | 37 | 0.0 | 1.0 | 0.00 | 0.00 | 0.00 | 88 | 1006.8 |
| 20260506030126 | 60 | 23 | 1.0 | 5.0 | 0.00 | 0.00 | 0.00 | 87 | 1006.9 |
| 20260506025623 | 60 | 60 | 2.0 | 3.0 | 0.00 | 0.00 | 0.00 | 87 | 1006.9 |
| 20260506025119 | 60 | 12 | 1.0 | 3.0 | 0.00 | 0.00 | 0.00 | 87 | 1007.1 |
| 20260506024617 | 60 | 48 | 2.0 | 4.0 | 0.00 | 0.00 | 0.00 | 86 | 1007.2 |
| 20260506024112 | 61 | 0 | 2.0 | 5.0 | 0.00 | 0.00 | 0.00 | 85 | 1007.3 |
| 20260506023609 | 61 | 353 | 2.0 | 4.0 | 0.00 | 0.00 | 0.00 | 84 | 1007.0 |
| 20260506023107 | 61 | 60 | 2.0 | 3.0 | 0.00 | 0.00 | 0.00 | 83 | 1007.1 |
| 20260506022604 | 62 | 314 | 1.0 | 5.0 | 0.00 | 0.00 | 0.00 | 82 | 1007.1 |
| 20260506022101 | 62 | 349 | 3.0 | 7.0 | 0.00 | 0.00 | 0.00 | 80 | 1007.2 |
| 20260506021559 | 64 | 9 | 3.0 | 9.0 | 0.00 | 0.00 | 0.00 | 75 | 1007.0 |
| 20260506021056 | 65 | 322 | 3.0 | 6.0 | 0.00 | 0.00 | 0.00 | 70 | 1006.9 |
| 20260506020553 | 66 | 186 | 0.0 | 4.0 | 0.00 | 0.00 | 0.00 | 65 | 1006.8 |
| 20260506020051 | 66 | 150 | 0.0 | 1.0 | 0.00 | 0.00 | 0.00 | 60 | 1006.5 |
| 20260506015548 | 66 | 205 | 0.0 | 2.0 | 0.00 | 0.00 | 0.00 | 60 | 1006.5 |
| 20260506015045 | 66 | 154 | 0.0 | 2.0 | 0.00 | 0.00 | 0.00 | 59 | 1006.6 |
| 20260506014543 | 67 | 191 | 1.0 | 3.0 | 0.00 | 0.00 | 0.00 | 59 | 1006.6 |
| 20260506014038 | 67 | 242 | 2.0 | 5.0 | 0.00 | 0.00 | 0.00 | 59 | 1006.7 |
| 20260506013537 | 67 | 219 | 2.0 | 4.0 | 0.00 | 0.00 | 0.00 | 59 | 1006.6 |
| 20260506013033 | 67 | 166 | 1.0 | 3.0 | 0.00 | 0.00 | 0.00 | 58 | 1006.5 |
| 20260506012529 | 67 | 220 | 2.0 | 4.0 | 0.00 | 0.00 | 0.00 | 59 | 1006.5 |
| 20260506012026 | 67 | 139 | 2.0 | 4.0 | 0.00 | 0.00 | 0.00 | 58 | 1006.4 |
| 20260506011524 | 67 | 194 | 2.0 | 5.0 | 0.00 | 0.00 | 0.00 | 58 | 1006.5 |
| 20260506011019 | 67 | 204 | 5.0 | 9.0 | 0.00 | 0.00 | 0.00 | 58 | 1006.6 |
| 20260506010514 | 67 | 164 | 0.0 | 5.0 | 0.00 | 0.00 | 0.00 | 58 | 1006.4 |
| 20260506010010 | 67 | 127 | 2.0 | 4.0 | 0.00 | 0.00 | 0.00 | 58 | 1006.6 |
| 20260506005507 | 67 | 213 | 3.0 | 7.0 | 0.00 | 0.00 | 0.00 | 57 | 1006.3 |
| 20260506005002 | 67 | 200 | 3.0 | 6.0 | 0.00 | 0.00 | 0.00 | 59 | 1006.5 |
| 20260506004500 | 68 | 202 | 2.0 | 5.0 | 0.00 | 0.00 | 0.00 | 57 | 1006.4 |
| 20260506003956 | 68 | 228 | 2.0 | 6.0 | 0.00 | 0.00 | 0.00 | 58 | 1006.4 |
| 20260506003453 | 68 | 176 | 2.0 | 10.0 | 0.00 | 0.00 | 0.00 | 57 | 1006.3 |
| 20260506002949 | 68 | 211 | 2.0 | 7.0 | 0.00 | 0.00 | 0.00 | 58 | 1006.3 |
| 20260506002445 | 68 | 166 | 1.0 | 4.0 | 0.00 | 0.00 | 0.00 | 58 | 1006.5 |
| 20260506001941 | 68 | 218 | 6.0 | 9.0 | 0.00 | 0.00 | 0.00 | 57 | 1006.5 |
| 20260506001438 | 68 | 218 | 3.0 | 8.0 | 0.00 | 0.00 | 0.00 | 59 | 1006.7 |
| 20260506000935 | 68 | 220 | 3.0 | 9.0 | 0.00 | 0.00 | 0.00 | 58 | 1006.7 |
| 20260506000433 | 68 | 39 | 0.0 | 5.0 | 0.00 | 0.00 | 0.00 | 58 | 1006.9 |
| 20260505235929 | 69 | 158 | 0.0 | 7.0 | 0.00 | 0.00 | 0.00 | 58 | 1006.6 |
| 20260505235428 | 68 | 183 | 2.0 | 11.0 | 0.00 | 0.00 | 0.00 | 58 | 1006.5 |
| 20260505234924 | 69 | 104 | 0.0 | 5.0 | 0.00 | 0.00 | 0.00 | 59 | 1006.5 |
| 20260505234422 | 69 | 209 | 6.0 | 9.0 | 0.00 | 0.00 | 0.00 | 58 | 1006.3 |
| 20260505233918 | 69 | 169 | 1.0 | 8.0 | 0.00 | 0.00 | 0.00 | 59 | 1006.4 |
| 20260505233416 | 68 | 141 | 0.0 | 3.0 | 0.00 | 0.00 | 0.00 | 61 | 1006.4 |
| 20260505232913 | 69 | 193 | 1.0 | 5.0 | 0.00 | 0.00 | 0.00 | 60 | 1006.5 |
| 20260505232411 | 69 | 230 | 0.0 | 6.0 | 0.00 | 0.00 | 0.00 | 60 | 1006.4 |
| 20260505231907 | 69 | 159 | 0.0 | 5.0 | 0.00 | 0.00 | 0.00 | 60 | 1006.5 |
| 20260505231405 | 69 | 133 | 1.0 | 3.0 | 0.00 | 0.00 | 0.00 | 60 | 1006.3 |
| 20260505230903 | 69 | 224 | 0.0 | 4.0 | 0.00 | 0.00 | 0.00 | 59 | 1006.5 |
| 20260505230400 | 69 | 188 | 1.0 | 7.0 | 0.00 | 0.00 | 0.00 | 59 | 1006.5 |
| 20260505225857 | 69 | 222 | 4.0 | 9.0 | 0.00 | 0.00 | 0.00 | 58 | 1006.4 |
| 20260505225354 | 69 | 343 | 0.0 | 10.0 | 0.00 | 0.00 | 0.00 | 59 | 1006.5 |
| 20260505224849 | 69 | 245 | 5.0 | 9.0 | 0.00 | 0.00 | 0.00 | 58 | 1006.5 |
| 20260505224347 | 69 | 230 | 3.0 | 13.0 | 0.00 | 0.00 | 0.00 | 59 | 1006.5 |
| 20260505223844 | 69 | 268 | 3.0 | 7.0 | 0.00 | 0.00 | 0.00 | 58 | 1006.6 |
| 20260505223341 | 69 | 120 | 2.0 | 7.0 | 0.00 | 0.00 | 0.00 | 59 | 1006.5 |
| 20260505222836 | 69 | 218 | 8.0 | 9.0 | 0.00 | 0.00 | 0.00 | 58 | 1006.5 |
| 20260505222333 | 70 | 301 | 1.0 | 4.0 | 0.00 | 0.00 | 0.00 | 58 | 1006.7 |
| 20260505221830 | 70 | 230 | 2.0 | 13.0 | 0.00 | 0.00 | 0.00 | 58 | 1006.6 |
| 20260505221327 | 70 | 259 | 4.0 | 20.0 | 0.00 | 0.00 | 0.00 | 58 | 1006.6 |
| 20260505220824 | 70 | 220 | 4.0 | 10.0 | 0.00 | 0.00 | 0.00 | 58 | 1006.6 |
| 20260505220321 | 70 | 216 | 4.0 | 8.0 | 0.00 | 0.00 | 0.00 | 58 | 1006.7 |
| 20260505215819 | 70 | 89 | 0.0 | 3.0 | 0.00 | 0.00 | 0.00 | 59 | 1006.8 |
| 20260505215317 | 70 | 287 | 7.0 | 9.0 | 0.00 | 0.00 | 0.00 | 58 | 1007.0 |
| 20260505214814 | 70 | 250 | 2.0 | 7.0 | 0.00 | 0.00 | 0.00 | 58 | 1006.9 |
| 20260505214312 | 70 | 180 | 2.0 | 12.0 | 0.00 | 0.00 | 0.00 | 57 | 1006.7 |
| 20260505213808 | 70 | 193 | 3.0 | 8.0 | 0.00 | 0.00 | 0.00 | 57 | 1006.9 |
| 20260505213306 | 70 | 0 | 3.0 | 10.0 | 0.00 | 0.00 | 0.00 | 57 | 1006.7 |
| 20260505212802 | 70 | 222 | 3.0 | 13.0 | 0.00 | 0.00 | 0.00 | 57 | 1006.6 |
| 20260505212259 | 70 | 235 | 6.0 | 15.0 | 0.00 | 0.00 | 0.00 | 56 | 1006.5 |
| 20260505211755 | 70 | 169 | 5.0 | 10.0 | 0.00 | 0.00 | 0.00 | 57 | 1006.4 |
| 20260505211253 | 70 | 198 | 2.0 | 13.0 | 0.00 | 0.00 | 0.00 | 57 | 1006.6 |
| 20260505210749 | 70 | 225 | 3.0 | 17.0 | 0.00 | 0.00 | 0.00 | 57 | 1006.6 |
| 20260505210247 | 70 | 169 | 4.0 | 8.0 | 0.00 | 0.00 | 0.00 | 57 | 1006.7 |
| 20260505205744 | 70 | 275 | 1.0 | 14.0 | 0.00 | 0.00 | 0.00 | 58 | 1006.5 |
| 20260505205242 | 70 | 245 | 2.0 | 21.0 | 0.00 | 0.00 | 0.00 | 57 | 1006.4 |
| 20260505204738 | 70 | 226 | 4.0 | 8.0 | 0.00 | 0.00 | 0.00 | 58 | 1006.5 |
| 20260505204236 | 70 | 253 | 8.0 | 11.0 | 0.00 | 0.00 | 0.00 | 58 | 1006.6 |
| 20260505203733 | 70 | 228 | 2.0 | 7.0 | 0.00 | 0.00 | 0.00 | 60 | 1006.6 |
| 20260505203230 | 71 | 197 | 2.0 | 3.0 | 0.00 | 0.00 | 0.00 | 59 | 1006.5 |
| 20260505202726 | 70 | 76 | 1.0 | 5.0 | 0.00 | 0.00 | 0.00 | 57 | 1006.5 |
| 20260505202222 | 70 | 48 | 0.0 | 7.0 | 0.00 | 0.00 | 0.00 | 57 | 1006.7 |
| 20260505201718 | 70 | 308 | 1.0 | 5.0 | 0.00 | 0.00 | 0.00 | 58 | 1006.7 |
| 20260505201216 | 70 | 180 | 3.0 | 6.0 | 0.00 | 0.00 | 0.00 | 57 | 1006.7 |
| 20260505200714 | 70 | 236 | 3.0 | 10.0 | 0.00 | 0.00 | 0.00 | 58 | 1006.6 |
| 20260505200211 | 70 | 244 | 4.0 | 5.0 | 0.00 | 0.00 | 0.00 | 58 | 1006.7 |
| 20260505195706 | 69 | 236 | 4.0 | 8.0 | 0.00 | 0.00 | 0.00 | 58 | 1006.8 |
| 20260505195204 | 70 | 181 | 0.0 | 7.0 | 0.00 | 0.00 | 0.00 | 57 | 1006.9 |
| 20260505194702 | 70 | 231 | 2.0 | 8.0 | 0.00 | 0.00 | 0.00 | 59 | 1006.8 |
| 20260505194157 | 70 | 206 | 3.0 | 10.0 | 0.00 | 0.00 | 0.00 | 57 | 1007.0 |
| 20260505193654 | 70 | 258 | 5.0 | 11.0 | 0.00 | 0.00 | 0.00 | 56 | 1007.0 |
| 20260505193151 | 70 | 108 | 2.0 | 7.0 | 0.00 | 0.00 | 0.00 | 58 | 1007.2 |
| 20260505192650 | 70 | 250 | 3.0 | 11.0 | 0.00 | 0.00 | 0.00 | 57 | 1007.2 |
| 20260505192147 | 70 | 259 | 4.0 | 12.0 | 0.00 | 0.00 | 0.00 | 56 | 1007.3 |
| 20260505191645 | 70 | 345 | 5.0 | 10.0 | 0.00 | 0.00 | 0.00 | 56 | 1007.1 |
| 20260505191143 | 70 | 273 | 4.0 | 6.0 | 0.00 | 0.00 | 0.00 | 56 | 1007.3 |
| 20260505190639 | 70 | 274 | 4.0 | 8.0 | 0.00 | 0.00 | 0.00 | 56 | 1007.2 |
| 20260505190138 | 70 | 251 | 1.0 | 5.0 | 0.00 | 0.00 | 0.00 | 57 | 1007.3 |
| 20260505185635 | 70 | 261 | 6.0 | 12.0 | 0.00 | 0.00 | 0.00 | 57 | 1007.2 |
| 20260505185132 | 70 | 103 | 3.0 | 5.0 | 0.00 | 0.00 | 0.00 | 56 | 1007.3 |
| 20260505184628 | 70 | 259 | 4.0 | 14.0 | 0.00 | 0.00 | 0.00 | 56 | 1007.5 |
| 20260505184125 | 70 | 182 | 0.0 | 9.0 | 0.00 | 0.00 | 0.00 | 57 | 1007.3 |
| 20260505183622 | 71 | 253 | 5.0 | 25.0 | 0.00 | 0.00 | 0.00 | 54 | 1007.3 |
| 20260505183120 | 73 | 218 | 4.0 | 13.0 | 0.00 | 0.00 | 0.00 | 52 | 1007.1 |
| 20260505182616 | 71 | 224 | 1.0 | 9.0 | 0.00 | 0.00 | 0.00 | 53 | 1007.3 |
| 20260505182113 | 71 | 296 | 3.0 | 11.0 | 0.00 | 0.00 | 0.00 | 55 | 1007.2 |
| 20260505181609 | 71 | 268 | 3.0 | 17.0 | 0.00 | 0.00 | 0.00 | 55 | 1007.3 |
| 20260505181107 | 72 | 295 | 4.0 | 13.0 | 0.00 | 0.00 | 0.00 | 54 | 1007.2 |
| 20260505180603 | 71 | 198 | 3.0 | 15.0 | 0.00 | 0.00 | 0.00 | 53 | 1007.6 |
| 20260505180101 | 70 | 272 | 3.0 | 7.0 | 0.00 | 0.00 | 0.00 | 56 | 1007.4 |
| 20260505175556 | 70 | 281 | 2.0 | 8.0 | 0.00 | 0.00 | 0.00 | 57 | 1007.5 |
| 20260505175053 | 69 | 259 | 6.0 | 13.0 | 0.00 | 0.00 | 0.00 | 54 | 1007.6 |
| 20260505174550 | 68 | 194 | 7.0 | 13.0 | 0.00 | 0.00 | 0.00 | 56 | 1007.5 |
| 20260505174045 | 68 | 307 | 2.0 | 17.0 | 0.00 | 0.00 | 0.00 | 59 | 1007.5 |
| 20260505173542 | 68 | 238 | 8.0 | 20.0 | 0.00 | 0.00 | 0.00 | 57 | 1007.3 |
| 20260505173039 | 68 | 223 | 14.0 | 14.0 | 0.00 | 0.00 | 0.00 | 58 | 1007.5 |
| 20260505172537 | 69 | 229 | 7.0 | 12.0 | 0.00 | 0.00 | 0.00 | 59 | 1007.3 |
| 20260505172033 | 69 | 209 | 3.0 | 10.0 | 0.00 | 0.00 | 0.00 | 58 | 1007.3 |
| 20260505171528 | 70 | 148 | 2.0 | 8.0 | 0.00 | 0.00 | 0.00 | 57 | 1007.0 |
| 20260505171025 | 70 | 219 | 3.0 | 15.0 | 0.00 | 0.00 | 0.00 | 56 | 1006.8 |
| 20260505170522 | 71 | 188 | 4.0 | 11.0 | 0.00 | 0.00 | 0.00 | 56 | 1006.7 |
| 20260505170018 | 71 | 245 | 4.0 | 12.0 | 0.00 | 0.00 | 0.00 | 54 | 1006.8 |
| 20260505165514 | 71 | 183 | 3.0 | 13.0 | 0.00 | 0.00 | 0.00 | 53 | 1006.7 |
| 20260505165009 | 72 | 205 | 7.0 | 14.0 | 0.00 | 0.00 | 0.00 | 53 | 1006.6 |
| 20260505164500 | 72 | 253 | 6.0 | 15.0 | 0.00 | 0.00 | 0.00 | 53 | 1006.7 |
| 20260505163958 | 72 | 229 | 3.0 | 17.0 | 0.00 | 0.00 | 0.00 | 55 | 1006.7 |
| 20260505163457 | 73 | 253 | 4.0 | 8.0 | 0.00 | 0.00 | 0.00 | 56 | 1006.7 |
| 20260505162956 | 72 | 221 | 5.0 | 14.0 | 0.00 | 0.00 | 0.00 | 55 | 1006.8 |
| 20260505162451 | 72 | 140 | 5.0 | 19.0 | 0.00 | 0.00 | 0.00 | 56 | 1006.8 |
| 20260505161948 | 71 | 207 | 3.0 | 8.0 | 0.00 | 0.00 | 0.00 | 57 | 1007.0 |
| 20260505161445 | 71 | 223 | 2.0 | 15.0 | 0.00 | 0.00 | 0.00 | 58 | 1007.2 |
| 20260505160942 | 69 | 217 | 3.0 | 11.0 | 0.00 | 0.00 | 0.00 | 59 | 1007.2 |
| 20260505160441 | 69 | 212 | 3.0 | 8.0 | 0.00 | 0.00 | 0.00 | 62 | 1007.3 |
| 20260505152916 | 68 | 173 | 2.0 | 7.0 | 0.00 | 0.00 | 0.00 | 61 | 1007.2 |
| 20260505152413 | 68 | 195 | 3.0 | 6.0 | 0.00 | 0.00 | 0.00 | 65 | 1007.4 |
| 20260505151908 | 68 | 221 | 3.0 | 9.0 | 0.00 | 0.00 | 0.00 | 63 | 1007.3 |
| 20260505151405 | 68 | 203 | 6.0 | 14.0 | 0.00 | 0.00 | 0.00 | 61 | 1007.3 |
| 20260505150901 | 67 | 177 | 2.0 | 10.0 | 0.00 | 0.00 | 0.00 | 64 | 1007.0 |
| 20260505150358 | 67 | 107 | 2.0 | 8.0 | 0.00 | 0.00 | 0.00 | 62 | 1007.1 |
| 20260505140317 | 68 | 188 | 3.0 | 9.0 | 0.00 | 0.00 | 0.00 | 63 | 1007.4 |
| 20260505130241 | 67 | 94 | 3.0 | 4.0 | 0.00 | 0.00 | 0.00 | 64 | 1007.1 |
| 20260505124731 | 66 | 186 | 3.0 | 8.0 | 0.00 | 0.00 | 0.00 | 65 | 1007.3 |
| 20260505124228 | 66 | 162 | 3.0 | 7.0 | 0.00 | 0.00 | 0.00 | 64 | 1007.3 |
| 20260505123723 | 65 | 205 | 4.0 | 8.0 | 0.00 | 0.00 | 0.00 | 67 | 1007.1 |
| 20260505123220 | 65 | 212 | 3.0 | 10.0 | 0.00 | 0.00 | 0.00 | 66 | 1007.2 |
| 20260505122717 | 64 | 200 | 1.0 | 5.0 | 0.00 | 0.00 | 0.00 | 67 | 1007.4 |
| 20260505122214 | 64 | 131 | 1.0 | 8.0 | 0.00 | 0.00 | 0.00 | 69 | 1007.4 |
| 20260505121711 | 64 | 214 | 2.0 | 6.0 | 0.00 | 0.00 | 0.00 | 69 | 1007.4 |
| 20260505121207 | 63 | 232 | 5.0 | 7.0 | 0.00 | 0.00 | 0.00 | 69 | 1007.4 |
| 20260505120704 | 62 | 68 | 1.0 | 4.0 | 0.00 | 0.00 | 0.00 | 72 | 1007.4 |
| 20260505120159 | 63 | 255 | 1.0 | 12.0 | 0.00 | 0.00 | 0.00 | 71 | 1007.3 |
| 20260505115653 | 63 | 233 | 3.0 | 9.0 | 0.00 | 0.00 | 0.00 | 70 | 1007.1 |
| 20260505115151 | 63 | 88 | 0.0 | 4.0 | 0.00 | 0.00 | 0.00 | 70 | 1007.0 |
| 20260505114648 | 63 | 121 | 1.0 | 5.0 | 0.00 | 0.00 | 0.00 | 71 | 1007.1 |
| 20260505114144 | 63 | 176 | 1.0 | 15.0 | 0.00 | 0.00 | 0.00 | 70 | 1007.4 |
| 20260505113641 | 63 | 208 | 1.0 | 9.0 | 0.00 | 0.00 | 0.00 | 70 | 1007.1 |
| 20260505113138 | 63 | 310 | 2.0 | 10.0 | 0.00 | 0.00 | 0.00 | 70 | 1007.2 |
| 20260505112633 | 63 | 269 | 3.0 | 17.0 | 0.00 | 0.00 | 0.00 | 71 | 1007.1 |
| 20260505112132 | 62 | 257 | 4.0 | 8.0 | 0.00 | 0.00 | 0.00 | 71 | 1007.3 |
| 20260505111626 | 62 | 216 | 5.0 | 9.0 | 0.00 | 0.00 | 0.00 | 72 | 1007.2 |
| 20260505111122 | 62 | 233 | 3.0 | 8.0 | 0.00 | 0.00 | 0.00 | 73 | 1007.2 |
| 20260505110618 | 62 | 172 | 2.0 | 10.0 | 0.00 | 0.00 | 0.00 | 72 | 1007.0 |
| 20260505110115 | 62 | 204 | 5.0 | 15.0 | 0.00 | 0.00 | 0.00 | 72 | 1006.9 |
| 20260505102051 | 62 | 209 | 3.0 | 6.0 | 0.00 | 0.00 | 0.00 | 73 | 1006.6 |
| 20260505101550 | 62 | 224 | 7.0 | 9.0 | 0.00 | 0.00 | 0.00 | 73 | 1006.3 |
| 20260505101046 | 62 | 136 | 0.0 | 8.0 | 0.00 | 0.00 | 0.00 | 72 | 1006.3 |
| 20260505100542 | 62 | 218 | 6.0 | 9.0 | 0.00 | 0.00 | 0.00 | 73 | 1006.3 |
| 20260505100039 | 62 | 226 | 6.0 | 10.0 | 0.00 | 0.00 | 0.00 | 72 | 1006.3 |
| 20260505095535 | 62 | 178 | 4.0 | 15.0 | 0.00 | 0.00 | 0.00 | 72 | 1006.3 |
| 20260505095032 | 62 | 184 | 1.0 | 11.0 | 0.00 | 0.00 | 0.00 | 73 | 1006.2 |
| 20260505094529 | 62 | 192 | 2.0 | 8.0 | 0.00 | 0.00 | 0.00 | 73 | 1005.9 |
| 20260505094025 | 62 | 105 | 0.0 | 7.0 | 0.00 | 0.00 | 0.00 | 74 | 1005.8 |
| 20260505093521 | 62 | 195 | 4.0 | 8.0 | 0.00 | 0.00 | 0.00 | 73 | 1006.0 |
| 20260505093019 | 61 | 248 | 4.0 | 6.0 | 0.00 | 0.00 | 0.00 | 74 | 1005.9 |
| 20260505092516 | 61 | 208 | 3.0 | 6.0 | 0.00 | 0.00 | 0.00 | 74 | 1005.9 |
| 20260505092014 | 61 | 147 | 1.0 | 5.0 | 0.00 | 0.00 | 0.00 | 74 | 1005.8 |
| 20260505091511 | 61 | 112 | 1.0 | 7.0 | 0.00 | 0.00 | 0.00 | 74 | 1005.9 |
| 20260505091009 | 61 | 218 | 3.0 | 7.0 | 0.00 | 0.00 | 0.00 | 74 | 1005.8 |
| 20260505090507 | 61 | 325 | 1.0 | 3.0 | 0.00 | 0.00 | 0.00 | 75 | 1005.8 |
| 20260505090004 | 61 | 196 | 2.0 | 6.0 | 0.00 | 0.00 | 0.00 | 75 | 1005.9 |
| 20260505085502 | 61 | 159 | 3.0 | 8.0 | 0.00 | 0.00 | 0.00 | 75 | 1006.0 |
| 20260505085000 | 61 | 235 | 2.0 | 16.0 | 0.00 | 0.00 | 0.00 | 76 | 1006.1 |
| 20260505084458 | 61 | 263 | 2.0 | 7.0 | 0.00 | 0.00 | 0.00 | 76 | 1005.9 |
| 20260505083956 | 61 | 226 | 2.0 | 5.0 | 0.00 | 0.00 | 0.00 | 76 | 1005.8 |
| 20260505083453 | 61 | 95 | 2.0 | 4.0 | 0.00 | 0.00 | 0.00 | 76 | 1006.0 |
| 20260505082949 | 61 | 214 | 3.0 | 8.0 | 0.00 | 0.00 | 0.00 | 76 | 1005.9 |
| 20260505082445 | 61 | 200 | 4.0 | 9.0 | 0.00 | 0.00 | 0.00 | 77 | 1006.0 |
| 20260505081942 | 60 | 200 | 5.0 | 6.0 | 0.00 | 0.00 | 0.00 | 77 | 1005.9 |
| 20260505081439 | 60 | 201 | 3.0 | 7.0 | 0.00 | 0.00 | 0.00 | 77 | 1005.8 |
| 20260505080935 | 60 | 213 | 0.0 | 5.0 | 0.00 | 0.00 | 0.00 | 78 | 1005.9 |
| 20260505080431 | 60 | 220 | 2.0 | 8.0 | 0.00 | 0.00 | 0.00 | 77 | 1005.8 |
| 20260505075927 | 61 | 234 | 5.0 | 8.0 | 0.00 | 0.00 | 0.00 | 76 | 1005.6 |
| 20260505075424 | 61 | 107 | 3.0 | 5.0 | 0.00 | 0.00 | 0.00 | 76 | 1005.6 |
| 20260505074921 | 61 | 147 | 0.0 | 9.0 | 0.00 | 0.00 | 0.00 | 75 | 1005.7 |
| 20260505074419 | 61 | 193 | 3.0 | 8.0 | 0.00 | 0.00 | 0.00 | 75 | 1005.6 |
| 20260505073915 | 61 | 155 | 2.0 | 9.0 | 0.00 | 0.00 | 0.00 | 74 | 1005.7 |
| 20260505073413 | 62 | 217 | 5.0 | 11.0 | 0.00 | 0.00 | 0.00 | 73 | 1005.4 |
| 20260505072910 | 62 | 162 | 1.0 | 13.0 | 0.00 | 0.00 | 0.00 | 73 | 1005.3 |
| 20260505072406 | 62 | 211 | 2.0 | 11.0 | 0.00 | 0.00 | 0.00 | 72 | 1005.7 |
| 20260505071903 | 62 | 108 | 3.0 | 9.0 | 0.00 | 0.00 | 0.00 | 72 | 1005.4 |
| 20260505071359 | 62 | 220 | 4.0 | 13.0 | 0.00 | 0.00 | 0.00 | 72 | 1005.6 |
| 20260505070857 | 62 | 50 | 2.0 | 6.0 | 0.00 | 0.00 | 0.00 | 73 | 1005.6 |
| 20260505070353 | 62 | 130 | 2.0 | 7.0 | 0.00 | 0.00 | 0.00 | 72 | 1005.4 |
| 20260505065849 | 62 | 215 | 5.0 | 7.0 | 0.00 | 0.00 | 0.00 | 71 | 1005.6 |
| 20260505065346 | 63 | 222 | 1.0 | 8.0 | 0.00 | 0.00 | 0.00 | 72 | 1005.3 |
| 20260505064843 | 63 | 285 | 3.0 | 10.0 | 0.02 | 0.00 | 0.00 | 71 | 1005.2 |
| 20260505064340 | 64 | 164 | 4.0 | 9.0 | 0.02 | 0.00 | 0.00 | 69 | 1005.6 |
| 20260505063838 | 64 | 230 | 3.0 | 7.0 | 0.00 | 0.00 | 0.00 | 68 | 1005.7 |
| 20260505063333 | 63 | 168 | 4.0 | 7.0 | 0.00 | 0.00 | 0.00 | 69 | 1005.6 |
| 20260505062830 | 62 | 137 | 2.0 | 6.0 | 0.00 | 0.00 | 0.00 | 71 | 1005.8 |
| 20260505062328 | 63 | 150 | 3.0 | 10.0 | 0.00 | 0.00 | 0.00 | 71 | 1006.0 |
| 20260505061824 | 63 | 266 | 1.0 | 4.0 | 0.00 | 0.00 | 0.00 | 69 | 1005.9 |
| 20260505061323 | 63 | 199 | 1.0 | 5.0 | 0.00 | 0.00 | 0.00 | 69 | 1005.8 |
| 20260505060820 | 63 | 228 | 1.0 | 5.0 | 0.00 | 0.00 | 0.00 | 70 | 1005.7 |
| 20260505060317 | 63 | 229 | 2.0 | 8.0 | 0.00 | 0.00 | 0.00 | 68 | 1005.8 |
| 20260505055812 | 63 | 209 | 2.0 | 6.0 | 0.00 | 0.00 | 0.00 | 68 | 1005.9 |
| 20260505055308 | 63 | 248 | 0.0 | 3.0 | 0.00 | 0.00 | 0.00 | 68 | 1005.9 |
| 20260505054806 | 63 | 220 | 2.0 | 5.0 | 0.00 | 0.00 | 0.00 | 68 | 1006.0 |
| 20260505054303 | 62 | 190 | 2.0 | 5.0 | 0.00 | 0.00 | 0.00 | 69 | 1006.0 |
| 20260505053801 | 62 | 239 | 0.0 | 5.0 | 0.00 | 0.00 | 0.00 | 69 | 1006.1 |